User: anonymous
Location: ActonStarParty
(42.4766°N, 71.4538°W)
Time: 12:47:22
(UTC-04:00)
Language:

ITAMSAT 1 - Orbit

View from above orbital plane
View from above orbital plane
View from above satellite
View from above satellite

Ground track
Ground track

The orbit data is extracted from the following two-line orbital elements,

1 22826U 93061D   14107.44132588  .00000227  00000-0  10493-3 0  4016
2 22826 098.6513 054.0926 0010171 108.0677 252.1614 14.29997853 72231
Epoch (UTC): 17 April 2014 10:35:30
Eccentricity: 0.0010171
inclination: 98.6513°
perigee height: 784 km
apogee height: 799 km
right ascension of ascending node: 54.0926°
argument of perigee: 108.0677°
revolutions per day: 14.29997853
mean anomaly at epoch: 252.1614°
orbit number at epoch: 7223

The dashed part of the orbit path shows where the satellite is in the earth's shadow,  

DLR